Tracking 20621 objects as of 29-Mar-2020
HD Live streaming from Space Station
objects crossing your sky now

SL-8 DEB

Track SL-8 DEB now!
10-day predictions


NORAD ID: 10526
Int'l Code: 1977-116D
Perigee: 953.4 km
Apogee: 1,003.5 km
Inclination: 65.8 °
Period: 104.5 minutes
Semi major axis: 7349 km
RCS: 0.1839 m2 (medium)
Launch date: December 13, 1977
Source: Commonwealth of Independent States (former USSR) (CIS)
Launch site: PLESETSK MISSILE AND SPACE COMPLEX (PKMTR)

Note: This is SATELLITE DEBRIS
aabbcc
Your satellite tracking list
Your tracking list is empty




NASA's NSSDC Master Catalog

Two Line Element Set (TLE):
1 10526U 77116D   20089.36064671 -.00000011 +00000-0 +69386-4 0  9997
2 10526 065.8332 302.1930 0034140 333.5411 199.2663 13.77911378123765
Source of the keplerian elements: AFSPC